Weather History for Agadir Al Massira, Morocco

Change the Weather History Date:

Friday, August 30, 2013

  Actual Average Record
Temperature  
Mean Temperature 72 °F -  
Max Temperature 82 °F - - ()
Min Temperature 61 °F - - ()
Cooling Degree Days 6    
Growing Degree Days 22 (Base 50)    
Moisture  
Dew Point 61 °F    
Average Humidity 69    
Maximum Humidity 88    
Minimum Humidity 40    
Precipitation  
Precipitation 0.00 in - - ()
Sea Level Pressure  
Sea Level Pressure 29.97 in    
Wind  
Wind Speed 3 mph ()    
Max Wind Speed 15 mph    
Max Gust Speed -    
Visibility 6.0 miles    
Events      
T = Trace of Precipitation, MM = Missing Value Source: Averaged Metar Reports

Daily Weather History Graph

Daily Weather History Graph

Search for Another Location

Airport:

Trip Planner

Search our weather history database for the weather conditions in past years. The results will help you decide how hot, cold, wet, or windy it might be!

Date:

Astronomy

Aug. 30, 2013 Rise Set
Actual Time 7:13 AM WEST 8:02 PM WEST
Civil Twilight 6:48 AM WEST 8:27 PM WEST
Nautical Twilight 6:19 AM WEST 8:55 PM WEST
Astronomical Twilight 5:50 AM WEST 9:25 PM WEST
Moon 1:53 AM WEST (8/30) 3:55 PM WEST (8/30)
Length of Visible Light 13h 38m
Length of Day
12h 49m
Waning Crescent, 31% of the Moon is Illuminated
Aug 30
Waning Crescent
Sep 5
New
Sep 12
First Quarter
Sep 19
Full
Sep 27
Last Quarter

Hourly Weather History & Observations

Time (WEST) Temp. Heat Index Dew Point Humidity Pressure Visibility Wind Dir Wind Speed Gust Speed Precip Events Conditions
12:00 AM 68.0 °F - 62.6 °F 83% 29.98 in - Calm Calm - N/A   Unknown
1:00 AM 69 °F - 62 °F 72% 29.98 in 6 mi Calm Calm - -   Scattered Clouds
1:00 AM 68.0 °F - 62.6 °F 83% 29.98 in 6.2 mi Calm Calm - N/A   Partly Cloudy
2:00 AM 66.2 °F - 60.8 °F 83% 29.95 in 6.2 mi Calm Calm - N/A   Partly Cloudy
3:00 AM 66.2 °F - 60.8 °F 83% 29.95 in 6.2 mi Calm Calm - N/A   Unknown
4:00 AM 64 °F - 59 °F 79% 29.95 in 6 mi Calm Calm - -  
4:00 AM 64.4 °F - 59.0 °F 83% 29.95 in 6.2 mi Calm Calm - N/A   Unknown
5:00 AM 62.6 °F - 59.0 °F 88% 29.95 in 6.2 mi Calm Calm - N/A   Unknown
6:00 AM 62.6 °F - 59.0 °F 88% 29.95 in 6.2 mi Calm Calm - N/A   Partly Cloudy
7:00 AM 62 °F - 58 °F 81% 29.96 in 5 mi Calm Calm - -   Scattered Clouds
7:00 AM 62.6 °F - 57.2 °F 82% 29.95 in 5.0 mi Calm Calm - N/A   Partly Cloudy
8:00 AM 62.6 °F - 59.0 °F 88% 29.98 in 6.2 mi Calm Calm - N/A   Partly Cloudy
9:00 AM 68.0 °F - 62.6 °F 83% 29.98 in 5.0 mi Calm Calm - N/A   Mostly Cloudy
10:00 AM 72 °F - 62 °F 63% 29.99 in 6 mi Calm Calm - -   Mostly Cloudy
10:00 AM 71.6 °F - 62.6 °F 73% 29.98 in 6.2 mi Calm Calm - N/A   Mostly Cloudy
11:00 AM 75.2 °F - 62.6 °F 65% 29.98 in 6.2 mi Calm Calm - N/A   Scattered Clouds
12:00 PM 78.8 °F - 62.6 °F 57% 29.98 in 6.2 mi Calm Calm - N/A   Partly Cloudy
1:00 PM 81 °F - 63 °F 44% 29.97 in 6 mi WSW 9.2 mph - -   Scattered Clouds
1:00 PM 82.4 °F 83.4 °F 62.6 °F 51% 29.98 in 6.2 mi WSW 9.2 mph - N/A   Partly Cloudy
2:00 PM 80.6 °F 81.8 °F 62.6 °F 54% 29.98 in 6.2 mi West 11.5 mph - N/A   Partly Cloudy
3:00 PM 80.6 °F 81.5 °F 60.8 °F 51% 29.95 in - West 15.0 mph - N/A   Clear
4:00 PM 81 °F - 61 °F 40% 29.96 in 6 mi West 13.8 mph - -  
4:00 PM 80.6 °F 81.5 °F 60.8 °F 51% 29.95 in - West 13.8 mph - N/A   Clear
5:00 PM 78.8 °F - 60.8 °F 54% 29.95 in - West 15.0 mph - N/A   Clear
6:00 PM 78.8 °F - 60.8 °F 54% 29.95 in - West 13.8 mph - N/A   Clear
7:00 PM 77 °F - 61 °F 48% 29.94 in 6 mi SW 10.4 mph - -   Scattered Clouds
7:00 PM 77.0 °F - 60.8 °F 57% 29.95 in 6.2 mi SW 10.4 mph - N/A   Partly Cloudy
8:00 PM 73.4 °F - 60.8 °F 65% 29.95 in 6.2 mi SSW 6.9 mph - N/A   Partly Cloudy
9:00 PM 71.6 °F - 60.8 °F 69% 29.95 in 6.2 mi SSW 9.2 mph - N/A   Partly Cloudy
10:00 PM 69 °F - 62 °F 72% 29.99 in 6 mi SSW 9.2 mph - -   Scattered Clouds
10:00 PM 69.8 °F - 62.6 °F 78% 29.98 in 6.2 mi SSW 9.2 mph - N/A   Partly Cloudy
11:00 PM 69.8 °F - 62.6 °F 78% 30.01 in 6.2 mi Variable 1.2 mph - N/A   Partly Cloudy